IK7IZV Weather Reports


Display with metric or nautical units.
time (UTC)temp
F
wind
direction
speed
MPH
gust
MPH
rain 1hr
in
rain 24hr
in
rain mn
in
humidity
%
barometer
mb
20260902223018 78 217 0.0 4.0 0.00 0.00 0.00 76 1017.1
20260902221501 79 238 0.0 0.0 0.00 0.00 0.00 79 1017.0
20260902220059 80 309 0.0 0.0 0.00 0.00 0.00 80 1017.1
20260902214602 81 293 0.0 4.0 0.00 0.00 0.00 81 1017.2
20260902213106 81 316 0.0 2.0 0.00 0.00 0.00 81 1017.4
20260902211602 81 295 0.0 3.0 0.00 0.00 0.00 80 1017.4
20260902210058 82 341 3.0 6.0 0.00 0.00 0.00 81 1017.3
20260902204556 82 20 1.0 8.0 0.00 0.00 0.00 80 1017.3
20260902203100 83 13 4.0 9.0 0.00 0.00 0.00 80 1017.3
20260902201604 83 66 2.0 11.0 0.00 0.00 0.00 78 1017.2
20260902200130 83 35 4.0 8.0 0.00 0.00 0.00 78 1017.1
20260902194553 83 56 4.0 8.0 0.00 0.00 0.00 77 1017.1
20260902193053 83 54 2.0 7.0 0.00 0.00 0.00 76 1016.9
20260902191553 83 30 3.0 5.0 0.00 0.00 0.00 75 1016.9
20260902190100 83 25 2.0 6.0 0.00 0.00 0.00 74 1016.8
20260902184550 84 37 4.0 7.0 0.00 0.00 0.00 72 1016.7
20260902183053 85 25 1.0 3.0 0.00 0.00 0.00 66 1016.6
20260902181549 85 320 0.0 2.0 0.00 0.00 0.00 57 1016.4
20260902180049 85 296 0.0 2.0 0.00 0.00 0.00 58 1016.4
20260902174549 85 305 0.0 1.0 0.00 0.00 0.00 57 1016.3
20260902173048 85 162 0.0 1.0 0.00 0.00 0.00 57 1016.3
20260902171546 85 270 0.0 6.0 0.00 0.00 0.00 59 1016.5
20260902170044 85 228 2.0 5.0 0.00 0.00 0.00 60 1016.6
20260902164544 84 224 1.0 6.0 0.00 0.00 0.00 68 1016.7
20260902163042 84 170 1.0 4.0 0.00 0.00 0.00 72 1016.7
20260902161550 83 39 3.0 6.0 0.00 0.00 0.00 75 1016.7
20260902160041 83 66 6.0 8.0 0.00 0.00 0.00 75 1016.7
20260902154540 84 80 3.0 8.0 0.00 0.00 0.00 75 1016.8
20260902153040 84 89 8.0 12.0 0.00 0.00 0.00 75 1016.9
20260902151540 84 39 4.0 11.0 0.00 0.00 0.00 76 1017.1
20260902150039 84 73 5.0 11.0 0.00 0.00 0.00 76 1017.0
20260902144541 83 46 8.0 12.0 0.00 0.00 0.00 76 1016.8
20260902143035 84 116 7.0 13.0 0.00 0.00 0.00 75 1016.9
20260902141538 84 77 11.0 14.0 0.00 0.00 0.00 75 1017.0
20260902140038 84 54 9.0 13.0 0.00 0.00 0.00 74 1017.1
20260902134532 84 49 9.0 15.0 0.00 0.00 0.00 74 1017.4
20260902133031 84 83 10.0 14.0 0.00 0.00 0.00 73 1017.3
20260902131529 83 61 9.0 15.0 0.00 0.00 0.00 75 1017.3
20260902130029 84 70 8.0 16.0 0.00 0.00 0.00 76 1017.5
20260902124528 84 57 10.0 14.0 0.00 0.00 0.00 76 1017.7
20260902123128 84 71 10.0 14.0 0.00 0.00 0.00 76 1017.8
20260902121526 83 45 8.0 13.0 0.00 0.00 0.00 77 1018.0
20260902120025 83 82 7.0 13.0 0.00 0.00 0.00 79 1018.1
20260902114528 83 69 7.0 12.0 0.00 0.00 0.00 78 1018.2
20260902113026 83 43 8.0 12.0 0.00 0.00 0.00 78 1018.2
20260902111535 83 65 7.0 13.0 0.00 0.00 0.00 78 1018.4
20260902110021 83 75 10.0 15.0 0.00 0.00 0.00 77 1018.4
20260902104535 83 35 9.0 14.0 0.00 0.00 0.00 76 1018.5
20260902103019 83 75 10.0 14.0 0.00 0.00 0.00 74 1018.5
20260902101519 83 55 9.0 13.0 0.00 0.00 0.00 72 1018.6
20260902100026 84 92 8.0 14.0 0.00 0.00 0.00 71 1018.6
20260902094522 83 27 9.0 15.0 0.00 0.00 0.00 71 1018.8
20260902093017 84 75 9.0 16.0 0.00 0.00 0.00 71 1018.8
20260902091515 84 23 9.0 18.0 0.00 0.00 0.00 70 1018.8
20260902090014 84 8 10.0 18.0 0.00 0.00 0.00 71 1018.7
20260902084512 84 55 12.0 16.0 0.00 0.00 0.00 69 1018.6
20260902083011 84 358 10.0 16.0 0.00 0.00 0.00 69 1018.5
20260902081515 84 30 10.0 16.0 0.00 0.00 0.00 67 1018.5
20260902080008 83 11 10.0 16.0 0.00 0.00 0.00 68 1018.4
20260902074507 84 70 10.0 16.0 0.00 0.00 0.00 64 1018.4
20260902073105 85 21 4.0 9.0 0.00 0.00 0.00 60 1018.2
20260902071508 85 42 4.0 10.0 0.00 0.00 0.00 61 1018.1
20260902070004 85 350 3.0 9.0 0.00 0.00 0.00 62 1018.1
20260902064606 84 10 3.0 6.0 0.00 0.00 0.00 63 1018.1
20260902063057 83 351 0.0 3.0 0.00 0.00 0.00 61 1018.2
20260902060149 80 267 1.0 4.0 0.00 0.00 0.00 64 1017.9
20260902054557 79 280 1.0 5.0 0.00 0.00 0.00 64 1017.9
20260902053047 78 274 2.0 5.0 0.00 0.00 0.00 65 1018.0
20260902051553 78 289 0.0 3.0 0.00 0.00 0.00 65 1018.0
20260902050050 78 282 1.0 4.0 0.00 0.00 0.00 66 1017.9
20260902044545 77 276 1.0 5.0 0.00 0.00 0.00 66 1017.9
20260902043044 76 285 1.0 5.0 0.00 0.00 0.00 64 1017.8
20260902041555 75 309 1.0 4.0 0.00 0.00 0.00 63 1017.7
20260902040043 75 276 1.0 5.0 0.00 0.00 0.00 62 1017.6
20260902034545 75 274 0.0 3.0 0.00 0.00 0.00 62 1017.6
20260902033045 75 208 1.0 5.0 0.00 0.00 0.00 62 1017.6
20260902031540 75 217 2.0 5.0 0.00 0.00 0.00 61 1017.6
20260902030038 76 277 2.0 5.0 0.00 0.00 0.00 60 1017.5
20260902024538 76 265 2.0 5.0 0.00 0.00 0.00 60 1017.5
20260902023036 76 201 0.0 5.0 0.00 0.00 0.00 59 1017.5
20260902021544 76 259 2.0 6.0 0.00 0.00 0.00 59 1017.6
20260902020035 76 224 2.0 5.0 0.00 0.00 0.00 59 1017.6
20260902014538 76 256 2.0 6.0 0.00 0.00 0.00 59 1017.7
20260902013031 77 243 1.0 4.0 0.00 0.00 0.00 58 1017.8
20260902011536 77 274 0.0 4.0 0.00 0.00 0.00 59 1017.8
20260902010042 77 255 0.0 2.0 0.00 0.00 0.00 59 1017.9
20260902004533 78 217 0.0 4.0 0.00 0.00 0.00 59 1017.9
20260902003025 78 276 0.0 4.0 0.00 0.00 0.00 59 1017.8
20260902001525 78 277 1.0 3.0 0.00 0.00 0.00 59 1018.0
20260902000043 78 271 2.0 0.0 0.00 0.00 0.00 59 1017.9
20260901234549 78 269 0.0 4.0 0.00 0.00 0.00 60 1018.0
20260901233020 78 271 1.0 5.0 0.00 0.00 0.00 60 1018.0
20260901231526 78 291 1.0 5.0 0.00 0.00 0.00 60 1017.9
20260901230019 79 288 1.0 3.0 0.00 0.00 0.00 60 1017.9
20260901224523 79 312 1.0 5.0 0.00 0.00 0.00 59 1017.9